Regional Weather Roundup
Issued by NWS State College, PA

Home | Current Version | Previous Version | Text Only | Print | Product List | Glossary On
Versions: 1 2 3 4 5 6 7 8 9 10 11 12 13 14 15 16 17 18 19 20 21 22 23 24 25 26 27 28 29 30 31 32 33 34 35 36 37 38 39 40 41 42 43 44 45 46 47 48 49 50
000
ASUS41 KCTP 180603
RWRCTP

REGIONAL WEATHER ROUNDUP
NATIONAL WEATHER SERVICE STATE COLLEGE PA
200 AM EDT FRI AUG 18 2017

Note: "fair" indicates few or no clouds below 12,000 feet with no
significant weather and/or obstructions to visibility.

* = STATION THAT DOES NOT REPORT PRECIPITATION /E.G. RAIN...SNOW...ETC/
    THUNDER OR FOG.

PAZ002>004-007>009-013>016-020>023-029>032-180700-
WESTERN PENNSYLVANIA

CITY           SKY/WX    TMP DP  RH WIND       PRES   REMARKS
ERIE           PTCLDY    75  71  87 SW12      29.77F
MEADVILLE      MOCLDY    72  72 100 SW7       29.84S
FRANKLIN*      CLOUDY    72  68  88 SW8       29.86F
NEW CASTLE     CLOUDY    72  71  97 SW5       29.86S
BEAVER COUNTY  NOT AVBL
BUTLER*        CLOUDY    71  69  93 SW10      29.87F
PITTSBURGH INT CLOUDY    73  71  93 SW7       29.87F
PITTSBURGH     LGT RAIN  72  68  87 SW12      29.88F
INDIANA*       CLOUDY    72  72 100 SW5       29.91F
LATROBE        CLOUDY    72  72 100 S6        29.90F
WASHINGTON CO* CLOUDY    70  68  94 SW5       29.90F
$$

PAZ004>006-010>012-017>019-024>028-033>037-041-042-045-046-049>053-180700-
CENTRAL PENNSYLVANIA

CITY           SKY/WX    TMP DP  RH WIND       PRES   REMARKS
BRADFORD       CLOUDY    72  71  97 VRB7      29.87S
DUBOIS         CLOUDY    72  67  84 SW14      29.88S
CLEARFIELD     PTCLDY    74  70  87 SW7       29.89S
JOHNSTOWN      CLOUDY    73  70  90 SW8       29.94F
ALTOONA        PTCLDY    72  72 100 S6        29.90F
STATE COLLEGE  PTCLDY    73  72  96 SW5       29.89S
WILLIAMSPORT   RAIN      78  74  87 S8G18     29.84S FOG
SELINSGROVE    LGT RAIN  77  74  90 S5        29.87F
FT INDIANTOWN  CLOUDY    74  74 100 CALM      29.90S
CAPITAL CITY   CLOUDY    78  72  81 E6        29.88F
HARRISBURG     CLOUDY    78  73  84 SE6       29.88S
YORK           CLOUDY    76  74  93 VRB5      29.89S
$$

PAZ038>040-043-044-047-048-054-055-060>062-067>071-180700-
EASTERN PENNSYLVANIA

CITY           SKY/WX    TMP DP  RH WIND       PRES   REMARKS
SCRANTON       CLOUDY    76  70  82 SW5       29.90S
MOUNT POCONO   CLOUDY    69  68  96 S7        29.96F
ALLENTOWN      CLOUDY    76  69  79 S8        29.91F
QUAKERTOWN*    CLOUDY    73  72  94 S6        29.93F
READING        CLOUDY    76  73  91 SE5       29.89F
LANCASTER      CLOUDY    76  73  91 S6        29.90F
COATESVILLE    CLOUDY    72  72 100 VRB5      29.94F
POTTSTOWN      MOCLDY    73  73 100 VRB3      29.93F
BLUE BELL      MOCLDY    73  70  88 S6        29.94S
DOYLESTOWN     CLOUDY    73  70  90 VRB5      29.92F
WILLOW GROVE   NOT AVBL
NORTH PHILA    MOCLDY    77  70  79 VRB5      29.93F
PHILADELPHIA   MOCLDY    76  70  82 SW7       29.92F
$$




USA.gov is the U.S. government's official web portal to all federal, state and local government web resources and services.